This demonstration page uses our WeatherBlox Daily Observations layout. Learn more.

Hourly Observations for July 21, 2015

Temp ( °F °C ) Dew Point ( °F °C ) Humidity (%) Winds ( mph kmh ) Pressure ( in mb ) Visibility ( mi km ) Precip ( " mm )
12:15 am 00:15 Clear 65 18.5 59 14.9 80 80 Calm 30 1016 10 16.0934 0 0
12:35 am 00:35 Clear 63 17.3 59 14.8 85 85 Calm 30 1016 10 16.0934 0 0
12:55 am 00:55 Clear 64 17.5 59 15 85 85 Calm 30 1016 10 16.0934 0 0
1:15 am 01:15 Clear 63 17.1 59 14.8 86 86 Calm 30 1016 10 16.0934 0 0
1:35 am 01:35 Clear 62 16.5 58 14.6 89 89 Calm 30 1016 10 16.0934 0 0
1:55 am 01:55 Clear 61 16.3 58 14.5 89 89 Calm 30 1016 10 16.0934 0 0
2:15 am 02:15 Clear 61 15.9 57 13.8 87 87 Calm 30 1016 10 16.0934 0 0
2:35 am 02:35 Clear 61 15.9 57 13.8 87 87 Calm 30 1016 10 16.0934 0 0
2:55 am 02:55 Clear 60 15.4 57 14 91 91 Calm 30 1016 10 16.0934 0 0
3:15 am 03:15 Clear 58 14.5 55 12.9 90 90 Calm 30 1016 10 16.0934 0 0
3:35 am 03:35 Clear 58 14.7 56 13.5 93 93 Calm 30 1016 10 16.0934 0 0
3:55 am 03:55 Clear 58 14.6 55 12.9 90 90 Calm 30 1016 10 16.0934 0 0
4:15 am 04:15 Clear 58 14.5 56 13.1 91 91 Calm 30 1016 10 16.0934 0 0
4:35 am 04:35 Clear 58 14.3 56 13.2 93 93 Calm 30 1016 10 16.0934 0 0
4:55 am 04:55 Clear 57 13.7 55 12.5 93 93 Calm 30 1016 10 16.0934 0 0
5:15 am 05:15 Clear 57 13.8 55 12.8 94 94 Calm 30 1016 10 16.0934 0 0
5:35 am 05:35 Clear 56 13.2 54 12.1 93 93 Calm 30 1016 10 16.0934 0 0
5:55 am 05:55 Clear 55 13 54 12 94 94 Calm 30 1016 10 16.0934 0 0
6:15 am 06:15 Clear 56 13.3 54 12.3 94 94 Calm 30 1016 10 16.0934 0 0
6:35 am 06:35 Sunny 56 13.6 55 12.5 93 93 Calm 30 1016 10 16.0934 0 0
6:55 am 06:55 Sunny 57 13.9 55 12.6 92 92 Calm 30.03 1017 10 16.0934 0 0
7:15 am 07:15 Sunny 58 14.4 56 13.3 93 93 NE 3 6 30.03 1017 10 16.0934 0 0
7:35 am 07:35 Sunny 60 15.7 58 14.6 93 93 ENE 3 6 30.03 1017 10 16.0934 0 0
7:55 am 07:55 Sunny 63 17.1 59 15.2 89 89 E 3 6 30 1016 10 16.0934 0 0
8:15 am 08:15 Sunny 64 17.9 60 15.5 86 86 ESE 5 7 30 1016 10 16.0934 0 0
8:35 am 08:35 Sunny 66 18.7 60 15.4 81 81 ESE 6 9 30 1016 10 16.0934 0 0
8:55 am 08:55 Sunny 67 19.6 60 15.5 77 77 SE 7 11 30 1016 10 16.0934 0 0
9:15 am 09:15 Sunny 69 20.8 59 15.2 70 70 SSE 8 13 29.97 1015 10 16.0934 0 0
9:35 am 09:35 Sunny 71 21.5 59 14.9 66 66 SE 10 17 29.97 1015 10 16.0934 0 0
9:55 am 09:55 Sunny 72 22.1 59 14.9 64 64 SE 9 15 29.97 1015 10 16.0934 0 0
10:15 am 10:15 Sunny 73 22.5 58 14.7 61 61 SE 9 15 30 1016 10 16.0934 0 0
10:35 am 10:35 Sunny 74 23.5 58 14.6 57 57 SSE 7 11 29.94 1014 10 16.0934 0 0
10:55 am 10:55 Sunny 75 24 58 14.2 54 54 SE 12 19 29.94 1014 10 16.0934 0 0
11:15 am 11:15 Sunny 76 24.6 56 13.5 50 50 SE 10 17 29.94 1014 10 16.0934 0 0
11:35 am 11:35 Sunny 77 24.8 56 13.5 50 50 SE 10 17 29.94 1014 10 16.0934 0 0
11:55 am 11:55 Sunny 77 25 56 13.2 48 48 SE 13 20 29.94 1014 10 16.0934 0 0
12:15 pm 12:15 Sunny 78 25.6 57 14.1 49 49 SSE 5 7 29.94 1014 10 16.0934 0 0
12:35 pm 12:35 Sunny 79 26.1 57 13.7 46 46 SE 10 17 29.94 1014 10 16.0934 0 0
12:55 pm 12:55 Sunny 79 25.9 56 13.4 46 46 SSE 8 13 29.91 1013 10 16.0934 0 0
1:15 pm 13:15 Sunny 79 26 57 14.1 48 48 SE 9 15 29.91 1013 10 16.0934 0 0
1:35 pm 13:35 Sunny 80 26.6 56 13.6 45 45 S 5 7 29.91 1013 10 16.0934 0 0
1:55 pm 13:55 Sunny 80 26.5 56 13.5 45 45 SE 9 15 29.91 1013 10 16.0934 0 0
2:15 pm 14:15 Sunny 80 26.5 56 13.6 45 45 S 8 13 29.91 1013 10 16.0934 0 0
2:35 pm 14:35 Sunny 81 27 57 14 45 45 SE 9 15 29.85 1011 10 16.0934 0 0
2:55 pm 14:55 Sunny 81 27 57 14.1 45 45 S 6 9 29.85 1011 10 16.0934 0 0
3:15 pm 15:15 Sunny 81 27.2 58 14.7 46 46 SSE 8 13 29.85 1011 10 16.0934 0 0
3:35 pm 15:35 Sunny 81 27.3 58 14.4 45 45 S 5 7 29.85 1011 10 16.0934 0 0
3:55 pm 15:55 Sunny 81 27.1 58 14.2 45 45 SSE 5 7 29.85 1011 10 16.0934 0 0
4:15 pm 16:15 Sunny 82 27.6 59 14.8 46 46 S 8 13 29.85 1011 10 16.0934 0 0
4:35 pm 16:35 Sunny 81 27.2 58 14.3 45 45 S 3 6 29.85 1011 10 16.0934 0 0
4:55 pm 16:55 Sunny 80 26.6 58 14.3 47 47 SSE 5 7 29.85 1011 10 16.0934 0 0
5:15 pm 17:15 Sunny 81 27.3 58 14.2 45 45 ESE 8 13 29.83 1010 10 16.0934 0 0
5:35 pm 17:35 Sunny 81 27 59 14.8 47 47 ESE 9 15 29.83 1010 10 16.0934 0 0
5:55 pm 17:55 Sunny 81 27.2 59 14.9 47 47 ESE 7 11 29.83 1010 10 16.0934 0 0
6:15 pm 18:15 Sunny 80 26.6 58 14.3 47 47 ESE 8 13 29.83 1010 10 16.0934 0 0
6:35 pm 18:35 Sunny 80 26.9 59 15 48 48 E 9 15 29.83 1010 10 16.0934 0 0
6:55 pm 18:55 Sunny 81 27.2 58 14.5 46 46 ESE 9 15 29.83 1010 10 16.0934 0 0
7:15 pm 19:15 Sunny 80 26.6 58 14.3 47 47 ESE 8 13 29.83 1010 10 16.0934 0 0
7:35 pm 19:35 Sunny 78 25.5 59 14.8 52 52 E 8 13 29.85 1011 10 16.0934 0 0
7:55 pm 19:55 Sunny 76 24.2 61 16 60 60 SE 7 11 29.85 1011 10 16.0934 0 0
8:15 pm 20:15 Sunny 75 23.8 61 16 62 62 SE 7 11 29.85 1011 10 16.0934 0 0
8:35 pm 20:35 Sunny 73 23 61 16 65 65 ESE 7 11 29.85 1011 10 16.0934 0 0
8:55 pm 20:55 Sunny 72 22.2 61 16.2 69 69 ESE 7 11 29.88 1012 10 16.0934 0 0
9:15 pm 21:15 Clear 71 21.6 61 16.3 72 72 SE 7 11 29.88 1012 10 16.0934 0 0
9:35 pm 21:35 Clear 70 21.1 61 16.2 74 74 SE 7 11 29.88 1012 7 11.26538 0 0
9:55 pm 21:55 Clear 69 20.5 61 16.1 76 76 SE 8 13 29.88 1012 10 16.0934 0 0
10:15 pm 22:15 Clear 68 20.2 61 15.9 76 76 SE 7 11 29.88 1012 10 16.0934 0 0
10:35 pm 22:35 Clear 67 19.2 61 16 82 82 ESE 7 11 29.91 1013 10 16.0934 0 0
10:55 pm 22:55 Clear 66 19 61 15.9 82 82 SE 7 11 29.91 1013 10 16.0934 0 0
11:15 pm 23:15 Clear 66 18.7 60 15.7 83 83 SE 6 9 29.91 1013 10 16.0934 0 0
11:35 pm 23:35 Clear 65 18.1 60 15.6 85 85 SE 8 13 29.91 1013 10 16.0934 0 0
11:55 pm 23:55 Clear 65 18.2 60 15.5 84 84 SE 6 9 29.91 1013 10 16.0934 0 0

Powered by AerisWeather